Wind_Speed
16 15 15 14 12 11 11 10 9 8 6 5 4 3 2 1 1 1 1 2 3 3 3 4 5 6 6 6 7 8 8 9 10 11 11 12 12 13 13 14 14 15 15
18 17 16 15 14 13 12 11 10 9 8 7 5 4 3 3 2 2 2 3 3 3 4 5 6 6 7 7 8 9 9 10 10 11 12 13 13 13 14 15 15 15 16
20 19 18 17 16 15 14 13 12 10 9 8 6 6 5 4 3 3 3 3 4 4 5 6 7 7 8 8 9 9 10 10 11 11 12 13 14 14 15 15 16 16 17
22 21 20 19 18 17 15 14 13 12 10 9 8 7 6 5 5 5 4 4 5 5 6 7 7 8 9 9 10 10 11 11 11 12 13 13 14 15 16 16 17 17 18
24 23 22 21 20 19 17 16 15 13 12 11 9 8 8 7 7 6 6 6 6 6 7 7 8 9 9 10 10 11 11 12 13 13 14 14 15 16 17 17 18 18 19
25 25 24 23 22 20 19 17 16 15 13 12 11 10 9 9 8 8 8 7 7 8 8 8 9 10 10 11 11 12 12 13 14 15 15 16 16 17 18 18 19 20 20
26 26 26 25 23 22 21 19 18 16 15 13 12 11 11 10 10 9 9 9 9 8 9 9 10 10 11 12 13 13 14 15 15 16 17 17 18 19 19 20 20 21 22
27 27 27 26 25 24 22 21 20 18 16 15 14 13 12 11 11 11 11 10 10 10 10 10 11 12 13 14 14 15 16 16 17 18 18 19 19 20 21 21 22 23 23
29 29 28 28 27 26 24 22 21 20 18 17 16 15 14 13 12 12 12 12 12 12 12 12 13 13 14 14 15 16 17 18 18 19 19 20 21 22 22 23 24 25 25
31 30 30 29 28 27 26 24 23 22 20 19 17 16 16 15 14 14 14 14 14 14 14 14 15 15 15 16 17 17 18 19 20 20 21 22 23 23 24 24 25 26 27
32 31 31 31 30 29 28 26 25 24 22 20 19 18 18 17 16 16 16 16 16 16 16 16 16 17 17 17 18 19 19 20 21 22 23 24 25 25 25 26 27 28 28
33 32 32 32 31 31 29 28 27 26 24 23 21 20 19 19 18 18 17 17 17 17 18 18 18 19 19 19 20 20 21 22 23 24 25 25 26 26 27 28 29 29 30
35 34 34 34 33 32 31 30 29 28 26 25 24 22 21 21 20 20 20 19 19 19 20 20 21 21 21 21 22 22 23 24 25 26 26 27 27 28 28 29 30 30 31
36 36 36 36 35 34 33 32 31 30 29 28 27 25 23 23 23 22 22 22 21 21 21 22 22 23 23 23 24 24 25 26 26 27 28 28 28 29 29 31 31 31 32
37 37 37 37 37 36 35 34 32 31 30 30 29 27 26 25 25 24 24 24 23 23 23 23 24 24 24 25 26 26 27 27 28 28 29 29 30 30 31 32 32 33 33
39 38 39 39 38 37 36 36 35 34 33 32 31 30 28 28 27 26 26 25 24 24 25 25 25 26 27 28 28 28 27 28 28 29 30 30 31 32 32 33 34 34 34
40 40 40 39 39 38 37 37 37 35 34 33 32 32 31 30 29 28 27 27 26 26 26 27 27 28 29 29 29 29 30 29 30 31 31 31 32 32 33 34 34 35 35
41 42 42 41 40 40 39 38 38 37 36 34 34 33 33 32 31 30 29 28 27 28 28 28 29 29 30 30 30 31 31 31 31 32 32 33 33 33 34 34 35 35 36
41 43 43 42 41 41 41 40 39 39 37 36 35 34 34 33 33 32 32 31 30 30 30 30 30 31 31 32 32 32 32 32 33 33 33 33 34 34 34 34 35 36 37
42 43 44 44 43 42 42 41 41 40 38 37 37 36 35 35 35 35 34 34 33 33 33 33 32 32 32 33 33 33 33 33 34 34 34 35 35 34 34 35 36 37 38
44 43 44 44 44 43 43 42 42 41 40 39 38 38 37 37 36 36 36 36 36 36 36 34 33 33 33 33 33 34 34 34 34 35 35 35 35 35 35 36 37 38 39
45 45 45 45 45 43 43 43 43 42 41 41 40 39 39 38 38 37 37 37 37 37 37 36 34 34 34 34 33 34 34 33 34 35 35 35 36 37 37 38 38 39 41
45 45 46 46 46 44 43 44 43 43 42 42 41 41 40 40 39 38 39 38 37 37 37 37 36 36 35 35 35 35 35 35 36 36 36 36 37 38 38 39 40 41 43
44 44 46 46 46 46 45 44 44 44 43 42 42 41 41 41 40 40 40 39 38 38 38 37 37 37 36 36 36 36 36 36 37 37 37 37 37 38 38 40 41 43 44
46 46 46 47 47 47 46 45 44 44 44 43 43 43 42 42 41 41 40 40 39 38 38 37 38 37 37 37 37 37 38 38 39 39 38 38 39 40 41 42 43 45 46
47 47 47 47 47 46 46 46 46 45 45 44 44 44 43 42 42 42 42 41 40 39 38 37 37 38 38 38 38 39 39 39 39 39 39 39 40 41 42 43 44 45 46
Wind_Direction
224 223 222 222 221 223 222 220 219 216 218 217 217 221 229 247 285 332 340 344 349 356 356 350 349 347 344 342 340 338 337 336 334 335 335 334 333 331 329 328 326 324 324
225 225 225 226 225 224 226 225 224 220 223 224 226 234 243 257 278 298 311 322 329 332 336 337 338 339 338 337 335 332 331 330 330 331 332 331 329 328 327 326 324 322 322
227 227 227 228 227 226 227 229 228 224 227 229 231 238 246 257 271 283 294 307 312 317 321 325 330 333 333 331 329 327 326 325 327 328 329 328 327 326 325 324 322 321 320
229 229 229 229 229 229 230 232 231 228 229 232 235 242 250 258 270 278 287 296 304 310 314 318 323 326 327 327 325 325 324 325 326 325 325 325 325 324 323 322 321 319 319
231 230 230 229 230 231 233 234 232 229 232 235 239 245 253 260 268 274 281 291 298 305 310 314 319 321 321 322 323 322 322 324 324 323 323 322 322 321 321 320 320 319 318
232 231 230 230 230 232 233 234 230 231 234 239 241 246 252 259 267 274 279 285 292 299 306 312 316 319 317 317 318 319 320 320 321 321 321 320 319 319 318 318 318 317 317
232 231 231 231 231 231 232 232 232 232 235 239 243 249 253 259 266 272 278 283 286 291 300 307 312 314 314 315 316 317 317 317 317 318 318 317 317 316 316 315 315 315 316
232 232 231 230 231 231 232 233 234 234 236 239 243 249 255 259 265 270 274 280 284 289 296 303 306 310 311 311 312 313 315 315 315 315 315 315 315 314 313 313 313 313 313
233 232 231 230 231 232 232 233 235 235 237 240 244 248 253 257 263 269 273 278 282 288 294 298 302 305 307 308 309 311 312 314 314 313 314 314 314 313 313 312 312 312 312
233 233 231 230 231 231 232 233 235 235 237 241 245 248 252 257 261 268 272 276 280 286 292 296 300 301 302 304 306 308 310 312 313 312 313 313 312 312 312 312 312 312 312
233 234 232 230 231 231 232 233 234 236 239 242 246 249 252 256 260 264 269 274 279 284 290 294 298 299 301 302 304 306 308 309 310 311 311 311 310 310 310 311 312 312 311
232 233 233 231 231 232 232 233 234 236 239 242 245 248 251 256 260 263 268 272 276 281 287 292 294 296 299 300 302 304 305 307 309 309 309 309 309 309 309 310 312 312 312
232 233 232 230 231 232 232 233 235 237 239 242 245 248 251 255 259 263 266 271 275 279 284 288 291 293 296 298 299 300 303 305 306 307 308 308 308 308 308 309 310 311 311
232 232 231 231 232 232 233 233 235 238 239 242 245 248 252 255 259 262 266 270 275 279 283 287 289 291 294 295 298 299 302 304 304 305 307 307 307 308 309 309 309 310 310
232 232 231 231 232 233 234 234 235 238 241 244 245 248 251 254 257 261 265 269 273 277 281 285 289 290 292 294 296 298 301 303 304 305 306 306 307 308 308 308 308 309 309
232 231 230 231 232 234 234 235 236 238 241 244 246 248 250 253 256 259 263 267 271 275 279 284 288 291 294 295 294 296 299 302 303 304 306 306 307 307 307 308 308 308 308
232 230 230 230 232 234 235 236 236 238 240 243 246 248 251 254 256 258 261 266 270 274 278 282 286 289 291 293 295 295 297 299 301 303 305 305 306 306 307 307 308 308 308
231 231 231 232 233 234 236 237 238 239 242 242 245 248 251 255 256 258 261 266 270 274 277 280 283 286 289 292 293 295 297 298 300 303 304 305 305 305 306 307 308 308 308
232 232 232 233 234 236 237 238 239 240 242 243 245 248 250 254 256 258 262 266 270 274 277 280 282 285 288 289 291 294 296 298 300 302 303 304 305 305 306 306 307 307 307
232 232 233 234 234 237 238 238 240 241 242 244 247 248 251 253 256 258 262 266 270 272 276 280 282 284 287 289 290 292 294 296 299 301 302 303 303 304 304 305 306 306 307
233 233 233 234 236 238 239 239 240 242 243 245 248 250 251 253 255 259 264 267 270 272 276 279 282 283 285 287 289 290 293 296 297 299 301 301 302 303 304 305 306 307 308
235 235 235 236 237 239 239 240 240 241 242 244 248 250 253 255 257 260 262 266 270 273 276 278 280 283 284 286 288 290 292 294 296 298 299 299 300 302 303 305 306 307 307
236 237 237 237 238 240 239 239 240 241 243 245 247 250 252 256 257 260 263 266 270 273 276 278 279 282 284 285 287 289 290 292 294 296 297 298 299 301 303 304 306 306 307
237 237 237 238 239 240 240 240 241 243 243 245 247 249 252 254 257 260 263 265 270 273 276 277 278 281 283 284 287 287 289 291 293 295 296 298 300 302 303 305 306 307 307
239 238 237 238 238 240 240 241 242 243 244 246 248 251 253 255 258 261 263 266 270 272 275 276 277 280 281 283 285 287 289 290 292 295 296 297 300 301 303 304 305 306 308
239 240 239 238 238 239 241 243 242 244 244 247 249 251 253 255 258 260 263 266 268 271 274 276 278 280 281 282 284 287 289 290 292 295 296 298 300 301 303 304 305 306 307
Height
5859 5860 5862 5863 5864 5865 5866 5867 5868 5868 5869 5869 5870 5870 5870 5870 5870 5870 5870 5870 5870 5870 5870 5869 5869 5868 5868 5867 5866 5865 5864 5863 5862 5861 5860 5859 5858 5857 5856 5855 5853 5852 5851
5856 5858 5860 5861 5862 5864 5865 5866 5866 5867 5868 5868 5869 5869 5869 5869 5869 5870 5870 5870 5869 5869 5869 5869 5868 5867 5867 5866 5865 5864 5863 5862 5861 5860 5859 5858 5857 5856 5854 5853 5852 5850 5849
5853 5855 5857 5859 5860 5861 5863 5864 5864 5866 5866 5867 5867 5868 5868 5868 5869 5869 5869 5869 5869 5868 5868 5868 5867 5866 5866 5865 5864 5863 5862 5861 5860 5859 5858 5857 5856 5854 5853 5851 5850 5848 5847
5849 5852 5854 5856 5857 5859 5860 5862 5863 5864 5865 5866 5866 5867 5867 5867 5868 5868 5868 5868 5868 5867 5867 5866 5866 5865 5865 5864 5863 5862 5861 5860 5859 5858 5857 5855 5854 5853 5851 5849 5848 5846 5845
5846 5848 5850 5852 5854 5856 5858 5859 5861 5862 5863 5864 5865 5865 5866 5866 5866 5866 5867 5866 5866 5866 5866 5865 5865 5864 5863 5862 5861 5860 5859 5858 5857 5856 5855 5853 5852 5850 5849 5847 5845 5844 5842
5841 5844 5846 5849 5851 5853 5855 5857 5858 5859 5861 5862 5862 5863 5864 5864 5865 5865 5865 5865 5865 5865 5864 5864 5863 5863 5862 5861 5860 5859 5858 5857 5856 5854 5853 5851 5850 5848 5846 5845 5843 5841 5839
5837 5840 5842 5845 5847 5849 5852 5854 5855 5857 5858 5859 5860 5861 5862 5862 5863 5863 5863 5863 5863 5863 5863 5862 5862 5861 5860 5859 5858 5857 5856 5855 5854 5852 5851 5849 5847 5846 5844 5842 5840 5838 5836
5832 5835 5838 5840 5843 5846 5848 5850 5852 5854 5855 5856 5858 5859 5859 5860 5861 5861 5861 5861 5861 5861 5861 5860 5860 5859 5858 5857 5856 5855 5854 5852 5851 5850 5848 5846 5845 5843 5841 5839 5837 5835 5832
5828 5830 5833 5836 5839 5841 5844 5846 5848 5850 5852 5853 5855 5856 5857 5858 5858 5859 5859 5859 5859 5859 5859 5858 5857 5857 5856 5855 5854 5853 5851 5850 5849 5847 5845 5843 5841 5839 5837 5835 5833 5831 5828
5822 5825 5828 5831 5834 5837 5840 5842 5845 5847 5849 5850 5851 5853 5854 5855 5856 5856 5857 5857 5857 5856 5856 5856 5855 5854 5853 5852 5851 5850 5849 5847 5846 5844 5842 5840 5838 5836 5833 5831 5829 5826 5824
5817 5820 5823 5826 5829 5832 5835 5838 5840 5843 5845 5846 5848 5849 5850 5852 5852 5853 5854 5854 5854 5854 5853 5853 5852 5851 5850 5849 5848 5847 5846 5844 5842 5840 5838 5836 5834 5832 5829 5827 5825 5822 5819
5812 5815 5818 5821 5824 5827 5830 5833 5836 5838 5841 5842 5844 5845 5847 5848 5849 5849 5850 5849 5850 5850 5850 5850 5849 5848 5847 5846 5845 5843 5842 5841 5839 5837 5834 5832 5830 5827 5825 5822 5820 5817 5814
5805 5809 5812 5815 5819 5822 5825 5828 5831 5834 5836 5838 5839 5841 5842 5844 5845 5845 5846 5846 5846 5847 5846 5846 5845 5844 5843 5842 5841 5840 5838 5837 5835 5832 5830 5828 5825 5823 5820 5817 5815 5812 5809
5799 5802 5805 5809 5813 5816 5820 5823 5826 5828 5831 5833 5834 5836 5838 5839 5840 5841 5842 5842 5842 5843 5842 5842 5841 5840 5839 5838 5837 5835 5834 5832 5830 5828 5826 5823 5820 5818 5815 5812 5809 5806 5803
5792 5795 5799 5803 5806 5810 5814 5817 5820 5823 5825 5827 5829 5831 5833 5834 5836 5836 5837 5838 5838 5838 5838 5837 5837 5836 5834 5833 5832 5831 5829 5827 5825 5823 5820 5818 5815 5812 5809 5806 5803 5800 5797
5785 5789 5792 5796 5800 5804 5807 5811 5814 5816 5819 5821 5824 5825 5827 5829 5830 5831 5832 5833 5833 5833 5833 5833 5832 5831 5830 5828 5827 5825 5824 5822 5820 5818 5815 5812 5810 5807 5804 5800 5797 5794 5791
5778 5782 5786 5789 5793 5797 5800 5804 5807 5810 5812 5815 5818 5820 5821 5823 5824 5825 5826 5827 5828 5828 5828 5827 5827 5826 5824 5823 5822 5820 5818 5816 5814 5812 5809 5807 5804 5801 5798 5794 5791 5787 5784
5771 5775 5779 5783 5786 5790 5794 5797 5800 5803 5806 5809 5811 5813 5815 5817 5818 5819 5820 5821 5821 5822 5822 5822 5821 5820 5819 5817 5816 5814 5813 5810 5808 5806 5803 5801 5798 5795 5791 5788 5784 5780 5777
5764 5768 5772 5776 5780 5783 5787 5790 5793 5796 5799 5802 5804 5806 5808 5810 5812 5813 5814 5815 5815 5815 5815 5815 5815 5814 5813 5812 5810 5809 5807 5805 5802 5800 5797 5794 5791 5788 5784 5781 5777 5774 5770
5757 5761 5765 5769 5773 5776 5779 5782 5786 5789 5792 5795 5797 5800 5801 5803 5805 5806 5807 5808 5808 5809 5808 5808 5808 5807 5806 5805 5804 5802 5800 5798 5796 5793 5790 5787 5784 5781 5777 5774 5770 5767 5762
5749 5753 5758 5762 5766 5769 5772 5775 5778 5781 5785 5788 5790 5792 5794 5796 5798 5799 5800 5801 5801 5802 5802 5801 5801 5800 5799 5798 5797 5796 5794 5792 5789 5786 5783 5780 5777 5774 5770 5767 5763 5759 5755
5741 5745 5750 5754 5758 5761 5764 5767 5770 5774 5777 5780 5782 5784 5786 5788 5790 5792 5792 5793 5794 5794 5794 5794 5794 5793 5792 5791 5790 5789 5787 5786 5783 5780 5776 5773 5770 5766 5763 5759 5755 5751 5746
5733 5737 5742 5746 5749 5752 5756 5759 5762 5765 5768 5771 5774 5777 5779 5781 5783 5784 5785 5785 5786 5786 5786 5786 5786 5785 5784 5783 5782 5781 5779 5778 5776 5773 5770 5766 5762 5759 5755 5751 5747 5742 5737
5725 5729 5733 5737 5741 5744 5747 5751 5754 5757 5761 5763 5766 5768 5771 5772 5774 5776 5777 5777 5778 5778 5778 5778 5778 5777 5776 5775 5774 5773 5771 5769 5767 5766 5763 5759 5755 5751 5747 5742 5738 5733 5728
5716 5720 5724 5728 5732 5735 5739 5742 5746 5749 5752 5755 5757 5760 5762 5764 5766 5768 5769 5769 5770 5770 5770 5770 5770 5769 5768 5767 5766 5765 5763 5761 5758 5757 5755 5752 5748 5743 5738 5734 5729 5723 5718
5707 5711 5714 5718 5722 5726 5730 5733 5737 5740 5743 5746 5749 5751 5753 5756 5757 5759 5760 5761 5762 5762 5762 5762 5761 5761 5760 5759 5758 5756 5755 5753 5750 5748 5746 5743 5739 5735 5730 5725 5719 5714 5709